Presque Isle, ME

1:11 PM EDT on August 18, 2017 (GMT -0400)
Northern Maine Regional At Presque Isle

Weather History for KPQI - May, 2013

Change the Weather History Date:

Monday, May 27, 2013

  Actual Average Record
Temperature  
Mean Temperature 46 °F -  
Max Temperature 53 °F 67 °F 88 °F (1950)
Min Temperature 37 °F 42 °F 28 °F (1969)
Degree Days  
Heating Degree Days 19    
Moisture  
Dew Point 35 °F    
Average Humidity 68    
Maximum Humidity 93    
Minimum Humidity 47    
Precipitation  
Precipitation 0.01 in - - ()
Sea Level Pressure  
Sea Level Pressure 29.90 in    
Wind  
Wind Speed 10 mph (NW)    
Max Wind Speed 17 mph    
Max Gust Speed 28 mph    
Visibility 10 miles    
Events      
Averages and records for this station are not official NWS values.
T = Trace of Precipitation, MM = Missing Value Source: NWS Daily Summary

Daily Weather History Graph

Daily Weather History Graph

Search for Another Location

Airport or City:

Trip Planner

Search our weather history database for the weather conditions in past years. The results will help you decide how hot, cold, wet, or windy it might be!

Date:

Astronomy

May. 27, 2013 Rise Set
Actual Time 4:45 AM EDT 8:13 PM EDT
Civil Twilight 4:08 AM EDT 8:51 PM EDT
Nautical Twilight 3:18 AM EDT 9:41 PM EDT
Astronomical Twilight 2:13 AM EDT 10:46 PM EDT
Moon 10:45 PM EDT (5/27) 7:21 AM EDT (5/27)
Length of Visible Light 16h 43m
Length of Day
15h 28m
Waning Gibbous, 91% of the Moon is Illuminated
May 27
Waning Gibbous
May 31
Last Quarter
Jun 8
New
Jun 16
First Quarter
Jun 23
Full

Hourly Weather History & Observations

Time (EDT) Temp. Windchill Dew Point Humidity Pressure Visibility Wind Dir Wind Speed Gust Speed Precip Events Conditions
12:15 AM 42.8 °F 37.5 °F 37.4 °F 81% 29.76 in 10.0 mi NW 9.2 mph - N/A   Overcast
12:35 AM 42.8 °F 38.0 °F 37.4 °F 81% 29.75 in 10.0 mi WNW 8.1 mph - N/A   Overcast
12:55 AM 42.8 °F 37.5 °F 37.4 °F 81% 29.76 in 10.0 mi WNW 9.2 mph - N/A   Overcast
1:15 AM 42.8 °F 38.6 °F 37.4 °F 81% 29.76 in 10.0 mi WNW 6.9 mph - N/A   Overcast
1:35 AM 42.8 °F 37.0 °F 37.4 °F 81% 29.77 in 10.0 mi WNW 10.4 mph - N/A   Overcast
1:55 AM 42.8 °F 37.5 °F 35.6 °F 76% 29.76 in 10.0 mi NW 9.2 mph - N/A   Overcast
2:15 AM 42.8 °F 39.3 °F 35.6 °F 76% 29.77 in 10.0 mi WNW 5.8 mph - N/A   Overcast
2:35 AM 42.8 °F 38.0 °F 35.6 °F 76% 29.77 in 10.0 mi WNW 8.1 mph - N/A   Overcast
2:55 AM 41.0 °F 36.4 °F 35.6 °F 81% 29.77 in 10.0 mi WNW 6.9 mph - N/A   Overcast
3:15 AM 41.0 °F 34.7 °F 35.6 °F 81% 29.78 in 10.0 mi WNW 10.4 mph - N/A   Overcast
3:35 AM 41.0 °F 37.1 °F 35.6 °F 81% 29.78 in 10.0 mi NW 5.8 mph - N/A   Overcast
3:55 AM 41.0 °F 36.4 °F 35.6 °F 81% 29.79 in 10.0 mi WNW 6.9 mph - N/A   Overcast
4:15 AM 41.0 °F 35.8 °F 35.6 °F 81% 29.79 in 10.0 mi WNW 8.1 mph - N/A   Overcast
4:35 AM 41.0 °F 35.8 °F 35.6 °F 81% 29.80 in 10.0 mi WNW 8.1 mph - N/A   Overcast
4:55 AM 41.0 °F 35.8 °F 35.6 °F 81% 29.81 in 10.0 mi NW 8.1 mph - N/A   Overcast
5:15 AM 41.0 °F 35.8 °F 35.6 °F 81% 29.81 in 10.0 mi NW 8.1 mph 16.1 mph N/A   Overcast
5:35 AM 41.0 °F 36.4 °F 35.6 °F 81% 29.82 in 10.0 mi NW 6.9 mph - N/A   Overcast
5:55 AM 41.0 °F 36.4 °F 33.8 °F 76% 29.82 in 10.0 mi NW 6.9 mph - N/A   Overcast
6:15 AM 41.0 °F 36.4 °F 33.8 °F 76% 29.83 in 10.0 mi NW 6.9 mph - N/A   Overcast
6:35 AM 41.0 °F 35.2 °F 35.6 °F 81% 29.84 in 10.0 mi WNW 9.2 mph - N/A   Overcast
6:55 AM 41.0 °F 34.3 °F 33.8 °F 76% 29.84 in 10.0 mi NW 11.5 mph 17.3 mph N/A   Overcast
7:15 AM 41.0 °F 34.3 °F 35.6 °F 81% 29.85 in 10.0 mi NNW 11.5 mph - N/A   Overcast
7:35 AM 41.0 °F 33.9 °F 33.8 °F 76% 29.85 in 10.0 mi NW 12.7 mph 19.6 mph N/A   Overcast
7:55 AM 42.8 °F 34.8 °F 33.8 °F 70% 29.85 in 10.0 mi NW 17.3 mph 20.7 mph N/A   Mostly Cloudy
8:15 AM 42.8 °F 35.1 °F 33.8 °F 70% 29.85 in 10.0 mi WNW 16.1 mph 19.6 mph N/A   Overcast
8:35 AM 42.8 °F 36.6 °F 33.8 °F 70% 29.86 in 10.0 mi WNW 11.5 mph - N/A   Overcast
8:55 AM 42.8 °F 35.1 °F 33.8 °F 70% 29.86 in 10.0 mi NNW 16.1 mph - N/A   Mostly Cloudy
9:15 AM 46.4 °F 40.7 °F 33.8 °F 62% 29.86 in 10.0 mi NNW 12.7 mph 18.4 mph N/A   Mostly Cloudy
9:35 AM 42.8 °F 36.6 °F 33.8 °F 70% 29.86 in 10.0 mi WNW 11.5 mph 16.1 mph N/A   Overcast
9:55 AM 46.4 °F 40.4 °F 33.8 °F 62% 29.86 in 10.0 mi WNW 13.8 mph - N/A   Scattered Clouds
10:15 AM 46.4 °F 40.1 °F 33.8 °F 62% 29.87 in 10.0 mi NNW 15.0 mph 19.6 mph N/A   Mostly Cloudy
10:35 AM 46.4 °F 40.4 °F 33.8 °F 62% 29.88 in 10.0 mi NW 13.8 mph 19.6 mph N/A   Mostly Cloudy
10:55 AM 46.4 °F 41.5 °F 35.6 °F 66% 29.88 in 10.0 mi NW 10.4 mph 17.3 mph N/A   Mostly Cloudy
11:15 AM 46.4 °F 39.5 °F 33.8 °F 62% 29.89 in 10.0 mi NNW 17.3 mph 27.6 mph N/A   Mostly Cloudy
11:35 AM 48.2 °F - 33.8 °F 58% 29.89 in 10.0 mi NW 15.0 mph 21.9 mph N/A   Mostly Cloudy
11:55 AM 48.2 °F - 33.8 °F 58% 29.89 in 10.0 mi NNW 10.4 mph - N/A   Overcast
12:15 PM 48.2 °F - 33.8 °F 58% 29.90 in 10.0 mi NW 16.1 mph 21.9 mph N/A   Overcast
12:35 PM 48.2 °F - 32.0 °F 54% 29.90 in 10.0 mi NW 13.8 mph 20.7 mph N/A   Overcast
12:55 PM 48.2 °F - 33.8 °F 58% 29.90 in 10.0 mi NW 13.8 mph 17.3 mph N/A   Overcast
1:15 PM 48.2 °F - 35.6 °F 62% 29.90 in 10.0 mi West 15.0 mph - N/A   Overcast
1:35 PM 48.2 °F - 33.8 °F 58% 29.92 in 10.0 mi NW 15.0 mph 23.0 mph N/A   Overcast
1:55 PM 48.2 °F - 33.8 °F 58% 29.92 in 10.0 mi NNW 17.3 mph 25.3 mph N/A   Overcast
2:15 PM 48.2 °F - 33.8 °F 58% 29.92 in 10.0 mi NNW 13.8 mph 19.6 mph N/A   Overcast
2:35 PM 48.2 °F - 33.8 °F 58% 29.93 in 10.0 mi NNW 16.1 mph 23.0 mph N/A   Overcast
2:55 PM 48.2 °F - 33.8 °F 58% 29.93 in 10.0 mi NNW 12.7 mph 21.9 mph N/A   Overcast
3:15 PM 48.2 °F - 33.8 °F 58% 29.94 in 10.0 mi North 13.8 mph 19.6 mph N/A   Overcast
3:35 PM 48.2 °F - 33.8 °F 58% 29.94 in 10.0 mi NNW 12.7 mph - N/A   Overcast
3:55 PM 50.0 °F - 35.6 °F 58% 29.94 in 10.0 mi NNW 16.1 mph 19.6 mph N/A   Overcast
4:15 PM 51.8 °F - 33.8 °F 50% 29.95 in 10.0 mi NNW 15.0 mph 20.7 mph N/A   Overcast
4:35 PM 51.8 °F - 33.8 °F 50% 29.95 in 10.0 mi NW 16.1 mph 21.9 mph N/A   Overcast
4:55 PM 51.8 °F - 33.8 °F 50% 29.95 in 10.0 mi NNW 12.7 mph 17.3 mph N/A   Mostly Cloudy
5:15 PM 51.8 °F - 33.8 °F 50% 29.95 in 10.0 mi NNW 13.8 mph 20.7 mph N/A   Overcast
5:35 PM 51.8 °F - 32.0 °F 47% 29.96 in 10.0 mi NW 15.0 mph 23.0 mph N/A   Overcast
5:55 PM 51.8 °F - 32.0 °F 47% 29.96 in 10.0 mi NW 15.0 mph 20.7 mph N/A   Overcast
6:15 PM 51.8 °F - 33.8 °F 50% 29.96 in 10.0 mi NNW 13.8 mph 17.3 mph N/A   Overcast
6:35 PM 53.6 °F - 33.8 °F 47% 29.97 in 10.0 mi NNW 10.4 mph - N/A   Overcast
6:55 PM 51.8 °F - 33.8 °F 50% 29.98 in 10.0 mi NNW 12.7 mph 16.1 mph N/A   Overcast
7:15 PM 50.0 °F - 33.8 °F 54% 29.99 in 10.0 mi NNW 8.1 mph - N/A   Partly Cloudy
7:35 PM 48.2 °F - 33.8 °F 58% 29.99 in 10.0 mi NNW 6.9 mph - N/A   Clear
7:55 PM 48.2 °F - 33.8 °F 58% 30.00 in 10.0 mi NNW 4.6 mph - N/A   Clear
8:15 PM 46.4 °F 44.3 °F 33.8 °F 62% 30.00 in 10.0 mi NNW 4.6 mph - N/A   Partly Cloudy
8:35 PM 44.6 °F 43.1 °F 35.6 °F 71% 30.00 in 10.0 mi NNW 3.5 mph - N/A   Partly Cloudy
8:55 PM 44.6 °F - 33.8 °F 66% 30.01 in 10.0 mi Calm Calm - N/A   Scattered Clouds
9:15 PM 41.0 °F - 35.6 °F 81% 30.02 in 10.0 mi Calm Calm - N/A   Mostly Cloudy
9:35 PM 42.8 °F - 35.6 °F 76% 30.02 in 10.0 mi Calm Calm - N/A   Overcast
9:55 PM 41.0 °F - 35.6 °F 81% 30.03 in 10.0 mi Calm Calm - N/A   Overcast
10:15 PM 41.0 °F - 37.4 °F 87% 30.03 in 10.0 mi Calm Calm - N/A   Overcast
10:35 PM 42.8 °F - 37.4 °F 81% 30.04 in 10.0 mi Calm Calm - N/A   Overcast
10:55 PM 41.0 °F - 37.4 °F 87% 30.04 in 10.0 mi Calm Calm - N/A   Overcast
11:15 PM 39.2 °F - 35.6 °F 87% 30.04 in 10.0 mi Calm Calm - N/A   Partly Cloudy
11:35 PM 39.2 °F - 33.8 °F 81% 30.05 in 10.0 mi Calm Calm - N/A   Clear
11:55 PM 37.4 °F - 35.6 °F 93% 30.05 in 10.0 mi Calm Calm - N/A   Clear